Tracking 33831 objects as of 16-Apr-2026
HD Live streaming from Space Station
objects crossing your sky now

FENGYUN 1C DEB

Track FENGYUN 1C DEB now!
10-day predictions


NORAD ID: 30815
Int'l Code: 1999-025AUZ
Perigee: 631.1 km
Apogee: 634.4 km
Inclination: 99.3 °
Period: 97.2 minutes
Semi major axis: 7003 km
RCS: 0.0091 m2 (small)
Launch date: May 10, 1999
Source: People's Republic of China (PRC)
Launch site: Taiyaun Space Center, China (TSC)

Note: This is SATELLITE DEBRIS
Your satellite tracking list
Your tracking list is empty




NASA's NSSDC Master Catalog

Two Line Element Set (TLE):
1 30815U 99025AUZ 26105.97471829  .00011833  00000-0  15275-2 0  9991
2 30815  99.3022 285.8090 0002368 202.1875 309.7629 14.81170966996148
Source of the keplerian elements: AFSPC